DW7857 Weather Reports


time (UTC)temp
F
wind
direction
speed
knots
gust
knots
rain 1hr
in
rain 24hr
in
rain mn
in
humidity
%
barometer
mb
20180815083010 69 246 3.5 6.1 0.00 0.00 0.00 69 1006.7
20180815082010 69 214 4.3 7.0 0.00 0.00 0.00 69 1006.8
20180815081009 68 176 4.3 7.0 0.00 0.00 0.00 71 1006.8
20180815080009 68 211 5.2 7.0 0.00 0.00 0.00 70 1006.8
20180815075009 68 195 4.3 7.0 0.00 0.00 0.00 71 1007.1
20180815074009 66 215 3.5 5.2 0.00 0.00 0.00 74 1006.7
20180815073009 66 221 4.3 6.1 0.00 0.00 0.00 73 1006.7
20180815072010 66 203 4.3 6.1 0.00 0.00 0.00 75 1006.6
20180815071009 65 195 4.3 5.2 0.00 0.00 0.00 77 1006.6
20180815070009 64 234 2.6 3.5 0.00 0.00 0.00 77 1006.5
20180815065009 64 236 2.6 5.2 0.00 0.00 0.00 79 1006.5
20180815064009 63 241 3.5 6.1 0.00 0.00 0.00 81 1006.6
20180815063009 63 197 3.5 4.3 0.00 0.00 0.00 81 1006.8
20180815062009 63 202 2.6 4.3 0.00 0.00 0.00 81 1006.9
20180815061010 63 201 1.7 2.6 0.00 0.00 0.00 81 1006.8
20180815060009 62 206 2.6 3.5 0.00 0.00 0.00 81 1006.5
20180815055009 62 186 1.7 2.6 0.00 0.00 0.00 81 1006.5
20180815054010 62 189 1.7 1.7 0.00 0.00 0.00 81 1006.6
20180815053010 62 217 1.7 2.6 0.00 0.00 0.00 81 1006.5
20180815052009 62 204 1.7 3.5 0.00 0.00 0.00 81 1006.5
20180815051009 62 212 1.7 3.5 0.00 0.00 0.00 81 1006.4
20180815050009 62 208 1.7 3.5 0.00 0.00 0.00 81 1006.4
20180815045009 62 203 1.7 1.7 0.00 0.00 0.00 81 1006.4
20180815044009 62 191 3.5 5.2 0.00 0.00 0.00 81 1006.2
20180815043009 62 197 2.6 4.3 0.00 0.00 0.00 80 1006.4
20180815042009 63 215 1.7 3.5 0.00 0.00 0.00 80 1006.1
20180815041009 63 215 1.7 3.5 0.00 0.00 0.00 80 1006.3
20180815040009 63 228 0.9 1.7 0.00 0.00 0.00 79 1006.4
20180815035009 63 209 0.9 1.7 0.00 0.00 0.00 79 1006.3
20180815034009 63 222 1.7 3.5 0.00 0.00 0.00 79 1006.3
20180815033010 63 237 1.7 3.5 0.00 0.00 0.00 79 1006.4
20180815032009 63 203 1.7 3.5 0.00 0.00 0.00 79 1006.4
20180815031010 63 218 1.7 2.6 0.00 0.00 0.00 80 1006.4
20180815030009 63 306 3.5 4.3 0.00 0.00 0.00 80 1006.6
20180815025010 63 283 3.5 4.3 0.00 0.00 0.00 80 1006.6
20180815024009 63 300 4.3 7.8 0.00 0.00 0.00 80 1006.5
20180815023009 63 309 2.6 3.5 0.00 0.00 0.00 80 1006.9
20180815022009 63 299 3.5 4.3 0.00 0.00 0.00 80 1006.8
20180815021009 63 234 2.6 3.5 0.00 0.00 0.00 80 1006.6
20180815020009 63 284 2.6 3.5 0.00 0.00 0.00 80 1006.8
20180815015009 63 239 1.7 3.5 0.00 0.00 0.00 80 1006.8
20180815014009 63 266 2.6 3.5 0.00 0.00 0.00 80 1006.8
20180815013009 63 285 2.6 3.5 0.00 0.00 0.00 80 1006.5
20180815012010 63 314 3.5 7.0 0.00 0.00 0.00 80 1006.8
20180815011016 63 277 1.7 3.5 0.00 0.00 0.00 80 1006.9
20180815010015 63 284 4.3 9.6 0.00 0.00 0.00 80 1006.7
20180815005015 63 258 3.5 5.2 0.00 0.00 0.00 79 1006.8
20180815004015 63 290 3.5 4.3 0.00 0.00 0.00 79 1006.7
20180815003016 63 276 3.5 5.2 0.00 0.00 0.00 77 1006.7
20180815002015 63 301 3.5 4.3 0.00 0.00 0.00 77 1006.5
20180815001015 63 265 3.5 7.0 0.00 0.00 0.00 76 1007.0
20180815000021 63 246 3.5 6.1 0.00 0.00 0.00 76 1006.9
20180814235016 63 243 3.5 5.2 0.00 0.00 0.00 76 1007.0
20180814234015 63 269 2.6 5.2 0.00 0.00 0.00 77 1006.9
20180814233015 63 259 1.7 3.5 0.00 0.00 0.00 78 1007.1
20180814232015 63 255 3.5 7.0 0.00 0.00 0.00 78 1007.0
20180814231016 63 301 2.6 6.1 0.00 0.00 0.00 78 1007.2
20180814230016 63 273 3.5 7.0 0.00 0.00 0.00 78 1007.1
20180814225015 63 300 2.6 4.3 0.00 0.00 0.00 79 1007.2
20180814224015 63 289 2.6 4.3 0.00 0.00 0.00 79 1007.3
20180814223016 63 291 1.7 4.3 0.00 0.00 0.00 79 1007.2
20180814222015 63 254 1.7 2.6 0.00 0.00 0.00 79 1007.2
20180814221015 64 274 2.6 5.2 0.00 0.00 0.00 74 1007.3
20180814220015 64 231 2.6 4.3 0.00 0.00 0.00 74 1007.1
20180814215016 64 284 3.5 5.2 0.00 0.00 0.00 74 1007.3
20180814214015 64 300 4.3 6.1 0.00 0.00 0.00 74 1007.1
20180814213016 64 317 5.2 7.8 0.00 0.00 0.00 75 1007.4
20180814212015 64 307 3.5 5.2 0.00 0.00 0.00 76 1007.4
20180814211018 64 284 5.2 7.0 0.00 0.00 0.00 75 1007.0
20180814210017 64 304 4.3 7.0 0.00 0.00 0.00 75 1007.2
20180814205017 64 315 4.3 5.2 0.00 0.00 0.00 74 1007.1
20180814204015 64 314 4.3 6.1 0.00 0.00 0.00 74 1007.1
20180814203015 64 302 5.2 7.0 0.00 0.00 0.00 73 1007.0
20180814202015 64 314 4.3 5.2 0.00 0.00 0.00 73 1007.0
20180814201015 64 307 4.3 7.0 0.00 0.00 0.00 73 1007.0
20180814200015 65 300 3.5 6.1 0.00 0.00 0.00 72 1007.2
20180814195015 65 301 5.2 9.6 0.00 0.00 0.00 72 1007.1
20180814194015 65 307 3.5 4.3 0.00 0.00 0.00 72 1007.0
20180814193015 65 304 3.5 4.3 0.00 0.00 0.00 72 1006.7
20180814192015 65 308 4.3 7.0 0.00 0.00 0.00 72 1006.9
20180814191015 65 314 6.1 9.6 0.00 0.00 0.00 71 1006.8
20180814190015 65 320 3.5 5.2 0.00 0.00 0.00 71 1006.8
20180814185015 66 314 3.5 6.1 0.00 0.00 0.00 71 1006.8
20180814184015 66 291 4.3 7.0 0.00 0.00 0.00 71 1006.8
20180814183015 66 307 7.0 9.6 0.00 0.00 0.00 70 1006.5
20180814182015 67 307 6.1 7.8 0.00 0.00 0.00 67 1006.4
20180814181015 67 309 6.1 7.0 0.00 0.00 0.00 65 1006.2
20180814180009 68 276 5.2 7.0 0.00 0.00 0.00 64 1006.4
20180814175015 68 264 5.2 7.0 0.00 0.00 0.00 64 1006.2
20180814174015 69 300 5.2 7.0 0.00 0.00 0.00 64 1006.2
20180814173015 60 270 6.1 6.1 0.00 0.00 0.00 82 1005.8
20180814172015 60 270 6.1 6.1 0.00 0.00 0.00 82 1006.1
20180814171016 60 270 6.1 6.1 0.00 0.00 0.00 82 1005.9
20180814170015 60 270 6.1 6.1 0.00 0.00 0.00 82 1006.2
20180814165016 60 270 6.1 6.1 0.00 0.00 0.00 82 1006.1
20180814164016 60 270 6.1 6.1 0.00 0.00 0.00 82 1006.2
20180814163015 60 270 6.1 6.1 0.00 0.00 0.00 82 1006.1
20180814162016 60 270 6.1 6.1 0.00 0.00 0.00 82 1006.3
20180814161016 60 270 6.1 6.1 0.00 0.00 0.00 82 1006.1
20180814160015 60 270 6.1 6.1 0.00 0.00 0.00 82 1006.2
20180814155016 60 270 6.1 6.1 0.00 0.00 0.00 82 1006.3
20180814154016 60 270 6.1 6.1 0.00 0.00 0.00 82 1006.2
20180814153015 60 270 6.1 6.1 0.00 0.00 0.00 82 1006.2
20180814152016 60 270 6.1 6.1 0.00 0.00 0.00 82 1006.2
20180814151016 60 270 6.1 6.1 0.00 0.00 0.00 82 1006.1
20180814150016 60 270 6.1 6.1 0.00 0.00 0.00 82 1005.9
20180814145016 60 270 6.1 6.1 0.00 0.00 0.00 82 1006.2
20180814144016 60 270 6.1 6.1 0.00 0.00 0.00 82 1006.0
20180814143015 60 270 6.1 6.1 0.00 0.00 0.00 82 1006.1
20180814142016 60 270 6.1 6.1 0.00 0.00 0.00 82 1006.2
20180814141016 60 270 6.1 6.1 0.00 0.00 0.00 82 1006.1
20180814140016 60 270 6.1 6.1 0.00 0.00 0.00 82 1005.9
20180814135016 60 270 6.1 6.1 0.00 0.00 0.00 82 1006.0
20180814134016 60 270 6.1 6.1 0.00 0.00 0.00 82 1006.0
20180814133016 60 270 6.1 6.1 0.00 0.00 0.00 82 1005.8
20180814132015 60 270 6.1 6.1 0.00 0.00 0.00 82 1005.6
20180814131016 60 270 6.1 6.1 0.00 0.00 0.00 82 1005.7